Home   Weather   Ny-Ålesund   Past weeks

Flag for Norway Past Weather in Ny-Ålesund, Svalbard, Norway — Yesterday and Last 2 Weeks

Now
17 °F

Partly sunny.


Feels Like: 17 °F
Forecast: 2 / 15 °F
Wind: 1 mph from South

Location: Ny Alesund

Current Time: Apr 24, 2017 at 11:23:10 pm

Latest Report: Apr 24, 2017 at 8:00 pm


Visibility: 47 mi

Pressure: 30.03 "Hg

Humidity: 62%

Dew Point: 6 °F

Location of Ny-ÅlesundLocation

Past Weather in Ny-Ålesund — Graph

°F

Ny-Ålesund Temperature Yesterday

Maximum temperature yesterday: 20 °F (at 3:00 pm)
Minimum temperature yesterday: 14 °F (at 8:00 pm)
Average temperature yesterday: 17 °F

High & Low Weather Summary for the Past Weeks

 TemperatureHumidityPressure
High30 °F (Apr 22, 1:00 pm)86% (Apr 14, 12:00 am)30.25 "Hg (Apr 14, 12:00 am)
Low3 °F (Apr 15, 1:00 am)37% (Apr 14, 6:00 pm)29.68 "Hg (Apr 10, 3:00 am)
Average18 °F61%30.05 "Hg
* Reported Apr 9 8:00 pm — Apr 24 8:00 pm, Ny-Ålesund, Weather by CustomWeather, © 2017

Note: Actual official high and low records may vary slightly from our data, if they occured in-between our weather recording intervals... More about our weather records

Advertising

Ny-Ålesund Weather History for the Previous 24 Hours

Scroll right to see more
 ConditionsComfort  
Time TempWeatherWind HumidityBarometerVisibility
8:00 pm
Mon, Apr 24
17 °FPartly sunny.1 mph62%30.03 "Hg47 mi
7:00 pm18 °FCold.2 mph62%30.03 "HgN/A
6:00 pm17 °FCold.1 mph61%30.03 "HgN/A
5:00 pm17 °FCold.1 mph60%30.03 "HgN/A
4:00 pm15 °FCold.2 mph62%30.03 "HgN/A
3:00 pm18 °FCold.2 mph59%30.04 "HgN/A
2:00 pm18 °FPartly sunny.2 mph60%30.05 "Hg40 mi
1:00 pm17 °FCold.2 mph62%30.05 "HgN/A
12:00 pm16 °FCold.2 mph62%30.06 "HgN/A
11:00 am19 °FCold.1 mph57%30.06 "HgN/A
10:00 am18 °FCold.1 mph56%30.06 "HgN/A
9:00 am16 °FCold.2 mph60%30.06 "HgN/A
8:00 am13 °FScattered clouds.5 mph63%30.06 "Hg25 mi
7:00 am15 °FCold.1 mph60%30.07 "HgN/A
6:00 am17 °FCold.1 mph63%30.06 "HgN/A
5:00 am16 °FCold.2 mph62%30.07 "HgN/A
4:00 am16 °FCold.3 mph62%30.07 "HgN/A
3:00 am14 °FCold.1 mph68%30.08 "HgN/A
2:00 am13 °FCold.2 mph66%30.08 "HgN/A
1:00 am12 °FCold.2 mph69%30.09 "HgN/A
12:00 am16 °FCold.1 mph67%30.09 "HgN/A
11:00 pm
Sun, Apr 23
16 °FCold.1 mph66%30.08 "HgN/A
Weather by CustomWeather, © 2017

See weather overviewHow to use our weather pages